EW8588 Weather Reports


time (UTC)temp
C
wind
direction
speed
KPH
gust
KPH
rain 1hr
cm
rain 24hr
cm
rain mn
cm
humidity
%
barometer
mb
20260502181534 22 343 3.2 12.9 0.00 4.39 0.00 46 1018.2
20260502163024 21 25 3.2 11.3 0.00 7.01 0.00 58 1018.3
20260502161516 20 332 1.6 12.9 0.00 7.01 0.00 57 1018.3
20260502151505 18 316 1.6 11.3 0.00 7.11 0.00 69 1018.2
20260502123044 12 13 0.0 6.4 0.00 7.49 0.00 90 1016.5
20260502121532 12 349 0.0 6.4 0.00 7.49 0.00 91 1016.3
20260502114530 12 326 0.0 4.8 0.00 7.49 0.00 90 1016.1
20260502113033 12 349 0.0 3.2 0.00 7.49 0.00 89 1015.9
20260502111532 12 322 0.0 3.2 0.00 7.49 0.00 87 1015.8
20260502110027 12 105 0.0 3.2 0.00 7.49 0.00 86 1015.6
20260502104521 12 342 0.0 3.2 0.00 7.49 0.00 86 1015.4
20260502103020 12 325 0.0 3.2 0.00 7.49 0.00 87 1015.0
20260502101517 12 39 0.0 3.2 0.00 7.49 0.00 87 1014.7
20260502091510 12 305 0.0 4.8 0.00 7.49 0.00 87 1013.9
20260502071501 13 344 1.6 9.7 0.00 7.49 0.00 89 1013.8
20260502070101 13 325 1.6 11.3 0.00 7.49 0.00 90 1013.6
20260502064601 13 58 1.6 9.7 0.00 7.49 0.00 91 1013.5
20260502063122 13 57 1.6 8.0 0.00 7.49 0.00 92 1013.4
20260502061557 13 162 1.6 8.0 0.00 7.49 0.00 91 1013.4
20260502060059 13 326 1.6 8.0 0.00 7.49 0.00 92 1013.3
20260502054605 13 13 1.6 8.0 0.00 8.15 0.00 92 1013.4
20260502053101 13 232 1.6 8.0 0.00 8.15 0.00 93 1013.9
20260502051551 13 300 0.0 8.0 0.00 8.15 0.00 93 1013.6
20260502050048 13 34 1.6 9.7 0.00 8.15 0.00 93 1013.7
20260502044548 12 259 1.6 9.7 0.05 8.20 8.15 94 1013.7
20260502043046 12 51 1.6 8.0 0.05 8.20 8.15 94 1013.7
20260502041551 13 308 1.6 12.9 0.05 8.20 8.15 94 1013.6
20260502040042 13 352 0.0 6.4 0.05 8.20 8.15 94 1013.3
20260502034539 13 9 1.6 6.4 0.05 8.15 8.10 95 1012.8
20260502033040 13 304 0.0 9.7 0.08 8.15 8.10 95 1012.5
20260502031533 13 309 1.6 9.7 0.10 8.15 8.10 95 1012.1
20260502030031 13 351 1.6 8.0 0.13 8.15 8.10 95 1011.3
20260502024531 14 321 1.6 6.4 0.10 8.10 8.05 95 1011.8
20260502023033 14 327 3.2 6.4 0.10 8.08 8.03 95 1011.8
20260502021530 14 7 1.6 8.0 0.18 8.05 8.00 95 1011.7
20260502020027 14 356 0.0 6.4 0.15 8.03 7.98 95 1011.6
20260502014523 14 2 1.6 9.7 0.25 8.03 7.95 95 1011.2
20260502013021 15 32 1.6 8.0 0.51 7.98 7.90 95 1010.8
20260502011520 15 345 0.0 8.0 0.66 7.90 7.82 95 1010.3
20260502010020 15 1 1.6 8.0 0.81 7.90 7.82 95 1008.9
20260502004519 15 327 1.6 8.0 0.71 7.98 7.70 95 1009.0
20260502003018 15 39 1.6 6.4 0.46 7.67 7.39 95 1009.6
20260502001517 15 353 0.0 9.7 0.23 7.42 7.14 95 1008.6
20260502000018 15 10 1.6 6.4 0.10 7.29 7.01 95 1008.8
20260501234514 15 360 4.8 16.1 0.10 7.26 6.99 94 1008.8
20260501233013 15 328 3.2 12.9 0.05 7.21 6.93 94 1008.1
20260501231511 16 326 1.6 9.7 0.03 7.19 6.91 94 1008.0
20260501230014 16 323 1.6 9.7 0.03 7.19 6.91 94 1008.1
20260501224510 16 292 0.0 12.9 0.03 7.16 6.88 94 1008.6
20260501223009 16 331 3.2 9.7 0.08 7.16 6.88 94 1008.4
20260501221509 16 11 3.2 8.0 0.23 7.16 6.88 95 1008.9
20260501220006 16 319 1.6 6.4 0.36 7.16 6.88 95 1008.8
20260501214506 16 4 0.0 6.4 0.43 7.14 6.86 95 1008.8
20260501213005 16 304 1.6 9.7 0.58 7.06 6.78 95 1007.1
20260501211505 16 78 0.0 9.7 0.81 6.91 6.63 95 1008.5
20260501210003 16 323 1.6 4.8 1.12 6.78 6.50 95 1008.2
20260501204502 17 349 1.6 11.3 1.98 6.68 6.40 95 1007.8
20260501203002 17 10 1.6 11.3 2.34 6.45 6.17 95 1007.2
20260501201502 17 323 0.0 11.3 2.03 6.07 5.77 95 1007.4
20260501200005 17 349 3.2 8.0 1.63 5.66 5.38 95 1006.9
20260501194609 17 188 1.6 4.8 0.66 4.70 4.42 95 1006.8
20260501193100 17 307 1.6 8.0 0.08 4.11 3.84 95 1006.5
20260501191559 17 9 3.2 12.9 0.00 4.04 3.76 94 1007.1
20260501190057 17 79 0.0 4.8 0.00 4.04 3.76 95 1007.8
20260501184557 17 299 0.0 6.4 0.00 4.04 3.76 95 1007.7
20260501183057 17 292 3.2 14.5 0.00 4.04 3.76 94 1007.1